KUIPER-00049

导读

KUIPER-00049是美国亚马逊“柯伊伯计划”低轨卫星互联网项目的卫星,于2025年6月23日发射,属于项目大规模部署阶段的组网卫星。该项目计划发射超过3000颗卫星,旨在为全球提供高速低延迟互联网接入,KUIPER-00049将助力项目构建覆盖全球的卫星通信网络,推动偏远地区联网及边缘云服务的落地。

基本信息
目录编号:
64509
目录名称:
KUIPER-00049
国际标识:
2025-134K
轨道中心:
EARTH
卫星名称:
KUIPER-00049
卫星全名:
KUIPER-00049
卫星状态:
在轨 (已飞行446 天)
发射日期:
2025-06-23 UTC
国别 :
美国 (US)
星等 :
--
该卫星已列入 空间交会检测服务 Space Conjunction Data Service (SCDS) ,当前飞行风险评估等级: 无高风险
轨道信息
数据来源 国际轨道数据 AOE轨道数据
星历时间 2026-09-11T17:02:08+0800
20小时前
查看轨道信息
2026-09-10T22:00:00+0800
1天前
查看轨道信息
半长轴 7007.696km 7007.683km
偏心率 0.0000701 0.0000699
轨道倾角 51.902° 51.900°
近地点辐角 98.294° 91.186°
升交点赤经 126.929° 130.436°
平近点角 261.811° 0.705°
近地点 629.067km 629.056km
远地点 630.051km 630.036km
周期 97.302分钟 97.302分钟
每日圈数 14.799256 14.7993
详细信息
使用方式:
暂无
2D轨道图
3D轨道图
轨道高度分析图
轨道倾角分析图
轨道综合分析图
查看轨道综合分析图
交会数据列表
事件ID 空间交会对象 最接近时刻(TCA) 交会距离 交会风险概率(CRP) 交会风险指数(CRI) 操作
CDM_260911-054404-237906-450922
2026-09-11T
05:44:26+0000
2.018 km
极远距离
1.61443E-6 低风险 0.39
CDM_260914-055602-716006-450921
PSLV DEB (27160)
2026-09-14T
05:56:05+0000
2.866 km
极远距离
1.407499E-6 低风险 0.38
与全量物体交会距离演化趋势
与全量物体交会风险概率演化趋势